Regional Weather Roundup
Issued by NWS Cleveland, OH

Home | Current Version | Previous Version | Text Only | Print | Product List | Glossary Off
Versions: 1 2 3 4 5 6 7 8 9 10 11 12 13 14 15 16 17 18 19 20 21 22 23 24 25 26 27 28 29 30 31 32 33 34 35 36 37 38 39 40 41 42 43 44 45 46 47 48 49 50

011
ASUS41 KCLE 251810
RWRCLE
OHIO REGIONAL WEATHER ROUNDUP
NATIONAL WEATHER SERVICE CLEVELAND, OH
200 PM EDT FRI MAY 25 2018

NOTE: "FAIR" INDICATES FEW OR NO CLOUDS BELOW 12,000 FEET WITH NO
SIGNIFICANT WEATHER AND/OR OBSTRUCTIONS TO VISIBILITY.

OHZ001>008-015>018-024>027-034-035-043-044-251900-
   NORTHWEST OHIO

CITY           SKY/WX    TMP DP  RH WIND       PRES   REMARKS
DEFIANCE       FAIR      82  54  37 SW8       29.94F
FINDLAY        FAIR      84  53  34 VRB7      29.94F
TOLEDO EXPRESS FAIR      86  53  32 SW8       29.93F
TOLEDO EXEC    FAIR      85  51  31 NW6       29.94F
LIMA           FAIR      82  52  35 VRB3      29.96F
$$

OHZ009>014-019>023-028>033-038-089-251900-
   NORTHEAST OHIO

CITY           SKY/WX    TMP DP  RH WIND       PRES   REMARKS
CLE-HOPKINS    FAIR      83  52  34 W6        29.97F
CLE-LAKEFRONT  FAIR      77  58  51 NW7       29.94F
CUY CO. ARPT   SUNNY     82  57  42 NW12      29.97
LORAIN-ELYRIA  FAIR      82  48  30 W8        29.96F
ASHTABULA      FAIR      82  53  36 W6        29.96F
AKRON-CANTON   FAIR      83  55  38 W7        29.98F
WOOSTER        FAIR      82  51  34 VRB3      29.98F
MANSFIELD      FAIR      83  53  35 SW10      29.98F
YOUNGSTOWN     FAIR      83  51  33 SW12      29.97F
$$

OHZ042-051>053-060>062-070>072-077>081-251900-
  SOUTHWEST OHIO

CITY           SKY/WX    TMP DP  RH WIND       PRES   REMARKS
CINC-COVINGTON FAIR      84  58  40 VRB5      29.99F
CINC-LUNKEN    FAIR      83  63  50 S5        29.97F
HAMILTON       FAIR      85  60  42 W9        29.98F
DAYTON         FAIR      82  54  37 SW6       29.98F
WRIGHT-PAT AFB SUNNY     84  50  30 W9        29.96F
DAYTON GENERAL FAIR      84  56  38 SW7       29.97F
WILMINGTON     FAIR      82  62  50 VRB7      29.98F
$$

OHZ036-037-039>041-045>050-054>059-063>069-073>076-082>088-251900-
  CENTRAL AND SOUTHEAST OHIO

CITY           SKY/WX    TMP DP  RH WIND       PRES   REMARKS
COLUMBUS       FAIR      84  56  38 SW5       29.96F
OSU AIRPORT    FAIR      83  57  41 W6        29.97F
BOLTON FIELD   SUNNY     82  61  47 S6G16     29.98F
RICKENBACK AFB FAIR      84  59  43 MISG      29.96F
NEWARK         FAIR      84  58  40 VRB6      29.96F
MARION         FAIR      82  51  34 W6        29.97F
LANCASTER      FAIR      83  63  50 SW7       29.98F
ZANESVILLE     FAIR      83  60  45 S8        29.97F
NEW PHILLY     NOT AVBL
$$




USA.gov is the U.S. government's official web portal to all federal, state and local government web resources and services.